Weather History for CYVR - May, 2013

Change the Weather History Date:

Thursday, May 16, 2013

  Actual Average Record
Temperature  
Mean Temperature 57 °F -  
Max Temperature 62 °F 58 °F 82 °F (2006)
Min Temperature 52 °F 46 °F 42 °F (1998)
Degree Days  
Heating Degree Days 8    
Growing Degree Days 7 (Base 50)    
Moisture  
Dew Point 51 °F    
Average Humidity 82    
Maximum Humidity 94    
Minimum Humidity 58    
Precipitation  
Precipitation 0.04 in - - ()
Sea Level Pressure  
Sea Level Pressure 29.98 in    
Wind  
Wind Speed 5 mph ()    
Max Wind Speed 14 mph    
Max Gust Speed -    
Visibility 12.1 miles    
Events Rain    
Averages and records for this station are not official NWS values.
T = Trace of Precipitation, MM = Missing Value Source: Averaged Metar Reports

Daily Weather History Graph

Daily Weather History Graph

Search for Another Location

Airport or City:

Trip Planner

Search our weather history database for the weather conditions in past years. The results will help you decide how hot, cold, wet, or windy it might be!

Date:

Astronomy

May. 16, 2013 Rise Set
Actual Time 5:27 AM PDT 8:50 PM PDT
Civil Twilight 4:49 AM PDT 9:29 PM PDT
Nautical Twilight 3:58 AM PDT 10:21 PM PDT
Astronomical Twilight 2:50 AM PDT 11:30 PM PDT
Moon 11:17 AM PDT (5/16) 1:05 AM PDT (5/16)
Length of Visible Light 16h 40m
Length of Day
15h 23m
Waxing Crescent, 36% of the Moon is Illuminated
May 16
Waxing Crescent
May 17
First Quarter
May 24
Full
May 31
Last Quarter
Jun 8
New

Hourly Weather History & Observations

Time (PDT) Temp. Dew Point Humidity Pressure Visibility Wind Dir Wind Speed Gust Speed Precip Events Conditions
12:00 AM 53.6 °F 46.4 °F 77% 30.04 in 20.0 mi East 8.1 mph - N/A Rain Light Rain
1:00 AM 53.6 °F 48.2 °F 82% 30.03 in 15.0 mi SE 3.5 mph - N/A Rain Light Rain
2:00 AM 53.6 °F 48.2 °F 82% 30.02 in 15.0 mi East 5.8 mph - N/A Rain Light Rain
3:00 AM 51.8 °F 50.0 °F 94% 30.01 in 15.0 mi East 4.6 mph - N/A Rain Light Rain
4:00 AM 51.8 °F 50.0 °F 94% 30.01 in 15.0 mi ESE 4.6 mph - N/A Rain Light Rain
5:00 AM 53 °F 49 °F 81% 30.01 in 15 mi ESE 4.6 mph - - Rain Light Rain
5:00 AM 51.8 °F 48.2 °F 88% 30.01 in 15.0 mi ESE 4.6 mph - N/A Rain Light Rain
6:00 AM 51.8 °F 50.0 °F 94% 30.01 in 10.0 mi East 4.6 mph - N/A Rain Light Rain
6:57 AM 53.6 °F - N/A% - 15.0 mi East 4.6 mph - N/A Rain Light Rain
7:00 AM 53.6 °F 50.0 °F 88% 30.01 in 15.0 mi East 5.8 mph - N/A Rain Light Rain
7:58 AM 53.6 °F - N/A% - 3.0 mi East 5.8 mph - N/A Rain Light Rain
8:00 AM 53.6 °F 50.0 °F 88% 30.01 in 3.0 mi East 5.8 mph - N/A Rain Light Rain
8:06 AM 53.6 °F - N/A% - 4.0 mi SE 5.8 mph - N/A Rain Light Rain
8:25 AM 53.6 °F - N/A% - 4.0 mi ESE 4.6 mph - N/A Rain Light Rain
8:33 AM 53.6 °F - N/A% - 4.0 mi ESE 4.6 mph - N/A   Light Drizzle
9:00 AM 53.6 °F 51.8 °F 94% 30.02 in 5.0 mi SE 4.6 mph - N/A   Light Drizzle
9:16 AM 53.6 °F - N/A% - 7.0 mi SSE 2.3 mph - N/A   Light Drizzle
9:31 AM 53.6 °F - N/A% - 7.0 mi East 3.5 mph - N/A   Light Drizzle
10:00 AM 55.4 °F 51.8 °F 88% 30.01 in 10.0 mi SE 2.3 mph - N/A   Overcast
11:00 AM 56 °F 53 °F 84% 30.01 in 15 mi WSW 6.9 mph - -   Partly Cloudy
11:00 AM 57.2 °F 51.8 °F 82% 30.01 in 15.0 mi WSW 6.9 mph - N/A   Overcast
12:00 PM 59.0 °F 53.6 °F 82% 30.00 in 15.0 mi WSW 10.4 mph - N/A   Scattered Clouds
1:00 PM 57.2 °F 53.6 °F 88% 29.99 in 20.0 mi WNW 9.2 mph - N/A   Partly Cloudy
2:00 PM 59.0 °F 53.6 °F 82% 29.98 in 20.0 mi WNW 10.4 mph - N/A   Partly Cloudy
3:00 PM 60.8 °F 51.8 °F 72% 29.96 in 20.0 mi West 9.2 mph - N/A   Partly Cloudy
4:00 PM 60.8 °F 50.0 °F 68% 29.95 in 30.0 mi WNW 8.1 mph - N/A   Partly Cloudy
5:00 PM 62 °F 51 °F 58% 29.93 in 28 mi WNW 9.2 mph - -   Scattered Clouds
5:00 PM 62.6 °F 51.8 °F 68% 29.93 in 30.0 mi WNW 9.2 mph - N/A   Partly Cloudy
6:00 PM 60.8 °F 51.8 °F 72% 29.91 in 30.0 mi West 13.8 mph - N/A   Partly Cloudy
7:00 PM 59.0 °F 51.8 °F 77% 29.90 in 30.0 mi WNW 12.7 mph - N/A   Partly Cloudy
8:00 PM 59.0 °F 51.8 °F 77% 29.90 in 30.0 mi WNW 4.6 mph - N/A   Partly Cloudy
9:00 PM 55.4 °F 51.8 °F 88% 29.91 in 30.0 mi South 4.6 mph - N/A   Partly Cloudy
10:00 PM 55.4 °F 51.8 °F 88% 29.92 in 30.0 mi South 4.6 mph - N/A   Partly Cloudy
11:00 PM 56 °F 51 °F 78% 29.92 in 28 mi South 2.3 mph - -  
11:00 PM 55.4 °F 51.8 °F 88% 29.92 in 30.0 mi South 2.3 mph - N/A   Clear